Time,TemperatureF,DewpointF,PressureIn,WindDirection,WindDirectionDegrees,WindSpeedMPH,WindSpeedGustMPH,Humidity,HourlyPrecipIn,Conditions,Clouds,dailyrainin,SolarRadiationWatts/m^2,SoftwareType,DateUTC
2013-02-28 00:00:00,51.2,43.5,29.87,NE,50,2.0,2.0,75,0.00,,,0.00,0,Wunderground v.1.15,2013-02-28 05:00:00,
2013-02-28 00:02:00,51.2,43.5,29.87,NNE,24,0.0,2.0,75,0.00,,,0.00,0,Wunderground v.1.15,2013-02-28 05:02:00,
2013-02-28 00:03:00,51.2,43.5,29.87,NNE,16,1.0,2.0,75,0.00,,,0.00,0,Wunderground v.1.15,2013-02-28 05:03:00,
2013-02-28 00:10:00,51.3,43.6,29.87,NE,43,1.0,2.0,75,0.00,,,0.00,0,Wunderground v.1.15,2013-02-28 05:10:00,
2013-02-28 00:13:00,51.3,43.3,29.87,NE,42,4.0,5.0,74,0.00,,,0.00,0,Wunderground v.1.15,2013-02-28 05:13:00,
2013-02-28 00:19:00,51.4,43.4,29.87,NNE,31,4.0,5.0,74,0.00,,,0.00,0,Wunderground v.1.15,2013-02-28 05:19:00,
2013-02-28 00:25:00,51.4,43.4,29.87,NNE,32,2.0,3.0,74,0.00,,,0.00,0,Wunderground v.1.15,2013-02-28 05:25:00,
2013-02-28 00:30:00,51.5,43.5,29.87,NNW,334,0.0,2.0,74,0.00,,,0.00,0,Wunderground v.1.15,2013-02-28 05:30:00,
2013-02-28 00:36:00,51.5,43.1,29.86,NE,42,3.0,3.0,73,0.00,,,0.00,0,Wunderground v.1.15,2013-02-28 05:36:00,
2013-02-28 00:42:00,51.5,43.1,29.86,NE,52,1.0,3.0,73,0.00,,,0.00,0,Wunderground v.1.15,2013-02-28 05:42:00,
2013-02-28 00:47:00,51.5,43.1,29.87,NNE,22,4.0,8.0,73,0.00,,,0.00,0,Wunderground v.1.15,2013-02-28 05:47:00,
2013-02-28 00:53:00,51.6,43.2,29.86,NNE,24,3.0,5.0,73,0.00,,,0.00,0,Wunderground v.1.15,2013-02-28 05:53:00,
2013-02-28 00:59:00,51.6,43.2,29.86,ENE,63,3.0,5.0,73,0.00,,,0.00,0,Wunderground v.1.15,2013-02-28 05:59:00,
2013-02-28 01:05:00,51.6,43.2,29.86,ENE,67,0.0,2.0,73,0.00,,,0.00,0,Wunderground v.1.15,2013-02-28 06:05:00,
2013-02-28 01:11:00,51.6,43.2,29.86,NE,48,3.0,5.0,73,0.00,,,0.00,0,Wunderground v.1.15,2013-02-28 06:11:00,
2013-02-28 01:17:00,51.5,43.1,29.86,NE,39,1.0,3.0,73,0.00,,,0.00,0,Wunderground v.1.15,2013-02-28 06:17:00,
2013-02-28 01:22:00,51.5,43.1,29.86,NNE,15,0.0,2.0,73,0.00,,,0.00,0,Wunderground v.1.15,2013-02-28 06:22:00,
2013-02-28 01:27:00,51.4,43.0,29.86,NE,34,3.0,4.0,73,0.00,,,0.00,0,Wunderground v.1.15,2013-02-28 06:27:00,
2013-02-28 01:33:00,51.4,43.0,29.86,NE,51,5.0,5.0,73,0.00,,,0.00,0,Wunderground v.1.15,2013-02-28 06:33:00,
2013-02-28 01:38:00,51.4,43.0,29.86,NE,49,4.0,5.0,73,0.00,,,0.00,0,Wunderground v.1.15,2013-02-28 06:38:00,
2013-02-28 01:43:00,51.3,42.9,29.86,NE,36,2.0,2.0,73,0.00,,,0.00,0,Wunderground v.1.15,2013-02-28 06:43:00,
2013-02-28 01:49:00,51.2,42.8,29.86,ENE,65,3.0,3.0,73,0.00,,,0.00,0,Wunderground v.1.15,2013-02-28 06:49:00,
2013-02-28 01:56:00,51.1,42.7,29.85,NE,40,2.0,2.0,73,0.00,,,0.00,0,Wunderground v.1.15,2013-02-28 06:56:00,
2013-02-28 02:02:00,51.0,43.0,29.85,NE,40,2.0,2.0,74,0.00,,,0.00,0,Wunderground v.1.15,2013-02-28 07:02:00,
2013-02-28 02:07:00,51.0,43.0,29.85,North,360,3.0,5.0,74,0.00,,,0.00,0,Wunderground v.1.15,2013-02-28 07:07:00,
2013-02-28 02:12:00,50.9,42.9,29.85,ENE,65,3.0,4.0,74,0.00,,,0.00,0,Wunderground v.1.15,2013-02-28 07:12:00,
2013-02-28 02:17:00,50.9,42.6,29.85,ENE,70,1.0,4.0,73,0.00,,,0.00,0,Wunderground v.1.15,2013-02-28 07:17:00,
2013-02-28 02:22:00,50.8,42.5,29.85,NE,41,1.0,2.0,73,0.00,,,0.00,0,Wunderground v.1.15,2013-02-28 07:22:00,
2013-02-28 02:27:00,50.8,42.5,29.85,ENE,64,3.0,5.0,73,0.00,,,0.00,0,Wunderground v.1.15,2013-02-28 07:27:00,
2013-02-28 02:32:00,50.8,42.5,29.85,NE,42,2.0,2.0,73,0.00,,,0.00,0,Wunderground v.1.15,2013-02-28 07:32:00,
2013-02-28 02:37:00,50.8,42.5,29.85,NNW,336,3.0,6.0,73,0.00,,,0.00,0,Wunderground v.1.15,2013-02-28 07:37:00,
2013-02-28 02:42:00,50.8,42.5,29.84,East,86,2.0,4.0,73,0.00,,,0.00,0,Wunderground v.1.15,2013-02-28 07:42:00,
2013-02-28 02:47:00,50.8,42.5,29.84,NE,38,2.0,4.0,73,0.00,,,0.00,0,Wunderground v.1.15,2013-02-28 07:47:00,
2013-02-28 02:52:00,50.8,42.1,29.84,NE,41,1.0,2.0,72,0.00,,,0.00,0,Wunderground v.1.15,2013-02-28 07:52:00,
2013-02-28 02:57:00,51.0,41.9,29.84,NE,42,1.0,4.0,71,0.00,,,0.00,0,Wunderground v.1.15,2013-02-28 07:57:00,
2013-02-28 03:02:00,51.1,42.0,29.84,ENE,57,1.0,3.0,71,0.00,,,0.00,0,Wunderground v.1.15,2013-02-28 08:02:00,
2013-02-28 03:07:00,51.0,42.3,29.84,NE,36,3.0,4.0,72,0.00,,,0.00,0,Wunderground v.1.15,2013-02-28 08:07:00,
2013-02-28 03:12:00,50.9,41.8,29.84,NNE,33,2.0,4.0,71,0.00,,,0.00,0,Wunderground v.1.15,2013-02-28 08:12:00,
2013-02-28 03:17:00,50.9,41.8,29.84,ENE,74,0.0,4.0,71,0.00,,,0.00,0,Wunderground v.1.15,2013-02-28 08:17:00,
2013-02-28 03:22:00,50.9,41.8,29.84,NNE,30,4.0,4.0,71,0.00,,,0.00,0,Wunderground v.1.15,2013-02-28 08:22:00,
2013-02-28 03:27:00,50.8,41.7,29.84,NE,56,3.0,4.0,71,0.00,,,0.00,0,Wunderground v.1.15,2013-02-28 08:27:00,
2013-02-28 03:32:00,50.9,41.8,29.84,ENE,61,3.0,4.0,71,0.00,,,0.00,0,Wunderground v.1.15,2013-02-28 08:32:00,
2013-02-28 03:37:00,50.9,41.8,29.84,ENE,70,2.0,4.0,71,0.00,,,0.00,0,Wunderground v.1.15,2013-02-28 08:37:00,
2013-02-28 03:42:00,50.9,41.8,29.84,NE,43,1.0,3.0,71,0.00,,,0.00,0,Wunderground v.1.15,2013-02-28 08:42:00,
2013-02-28 03:47:00,50.9,41.8,29.84,NE,55,0.0,3.0,71,0.00,,,0.00,0,Wunderground v.1.15,2013-02-28 08:47:00,
2013-02-28 03:52:00,50.8,41.7,29.84,NE,37,1.0,4.0,71,0.00,,,0.00,0,Wunderground v.1.15,2013-02-28 08:52:00,
2013-02-28 03:57:00,50.7,41.6,29.84,NNE,24,3.0,4.0,71,0.00,,,0.00,0,Wunderground v.1.15,2013-02-28 08:57:00,
2013-02-28 04:02:00,50.6,41.5,29.84,NNE,29,2.0,2.0,71,0.00,,,0.00,0,Wunderground v.1.15,2013-02-28 09:02:00,
2013-02-28 04:07:00,50.6,41.5,29.84,NE,53,3.0,5.0,71,0.00,,,0.00,0,Wunderground v.1.15,2013-02-28 09:07:00,
2013-02-28 04:12:00,50.5,41.4,29.85,NNE,30,2.0,3.0,71,0.00,,,0.00,0,Wunderground v.1.15,2013-02-28 09:12:00,
2013-02-28 04:17:00,50.4,41.7,29.85,NE,42,0.0,3.0,72,0.00,,,0.00,0,Wunderground v.1.15,2013-02-28 09:17:00,
2013-02-28 04:22:00,50.2,41.5,29.85,NNE,20,0.0,2.0,72,0.00,,,0.00,0,Wunderground v.1.15,2013-02-28 09:22:00,
2013-02-28 04:27:00,50.1,41.8,29.85,NNE,19,1.0,4.0,73,0.00,,,0.00,0,Wunderground v.1.15,2013-02-28 09:27:00,
2013-02-28 04:32:00,50.2,41.5,29.85,NNW,327,3.0,4.0,72,0.00,,,0.00,0,Wunderground v.1.15,2013-02-28 09:32:00,
2013-02-28 04:37:00,50.3,41.6,29.85,NNE,23,1.0,4.0,72,0.00,,,0.00,0,Wunderground v.1.15,2013-02-28 09:37:00,
2013-02-28 04:42:00,50.2,41.5,29.84,NE,46,0.0,3.0,72,0.00,,,0.00,0,Wunderground v.1.15,2013-02-28 09:42:00,
2013-02-28 04:47:00,50.2,41.5,29.85,NE,44,0.0,4.0,72,0.00,,,0.00,0,Wunderground v.1.15,2013-02-28 09:47:00,
2013-02-28 04:53:00,50.2,41.5,29.85,North,355,1.0,3.0,72,0.00,,,0.00,0,Wunderground v.1.15,2013-02-28 09:53:00,
2013-02-28 04:58:00,50.1,41.4,29.85,NNE,31,0.0,3.0,72,0.00,,,0.00,0,Wunderground v.1.15,2013-02-28 09:58:00,
2013-02-28 05:03:00,50.0,41.7,29.85,NE,44,0.0,1.0,73,0.00,,,0.00,0,Wunderground v.1.15,2013-02-28 10:03:00,
2013-02-28 05:08:00,49.9,41.6,29.85,NE,44,0.0,1.0,73,0.00,,,0.00,0,Wunderground v.1.15,2013-02-28 10:08:00,
2013-02-28 05:13:00,49.7,41.4,29.85,NW,319,0.0,1.0,73,0.00,,,0.00,0,Wunderground v.1.15,2013-02-28 10:13:00,
2013-02-28 05:18:00,49.6,41.3,29.85,NW,319,1.0,2.0,73,0.00,,,0.00,0,Wunderground v.1.15,2013-02-28 10:18:00,
2013-02-28 05:23:00,49.6,41.3,29.85,NNW,331,1.0,3.0,73,0.00,,,0.00,0,Wunderground v.1.15,2013-02-28 10:23:00,
2013-02-28 05:28:00,49.9,41.2,29.86,NNW,329,0.0,6.0,72,0.00,,,0.00,0,Wunderground v.1.15,2013-02-28 10:28:00,
2013-02-28 05:34:00,50.0,41.3,29.86,NNE,27,2.0,3.0,72,0.00,,,0.00,0,Wunderground v.1.15,2013-02-28 10:34:00,
2013-02-28 05:39:00,50.1,41.1,29.86,NE,41,1.0,7.0,71,0.00,,,0.00,0,Wunderground v.1.15,2013-02-28 10:39:00,
2013-02-28 05:44:00,50.3,40.9,29.86,ENE,57,3.0,13.0,70,0.00,,,0.00,0,Wunderground v.1.15,2013-02-28 10:44:00,
2013-02-28 05:49:00,50.4,41.0,29.86,NNW,342,3.0,13.0,70,0.00,,,0.00,0,Wunderground v.1.15,2013-02-28 10:49:00,
2013-02-28 05:54:00,50.3,40.9,29.86,NE,35,4.0,4.0,70,0.00,,,0.00,0,Wunderground v.1.15,2013-02-28 10:54:00,
2013-02-28 05:59:00,50.2,41.2,29.86,NNW,346,2.0,4.0,71,0.00,,,0.00,0,Wunderground v.1.15,2013-02-28 10:59:00,
2013-02-28 06:04:00,50.1,41.1,29.86,NNE,22,2.0,5.0,71,0.00,,,0.00,0,Wunderground v.1.15,2013-02-28 11:04:00,
2013-02-28 06:09:00,50.0,41.0,29.86,NNE,28,3.0,5.0,71,0.00,,,0.00,0,Wunderground v.1.15,2013-02-28 11:09:00,
2013-02-28 06:14:00,49.9,41.2,29.86,North,9,1.0,5.0,72,0.00,,,0.00,0,Wunderground v.1.15,2013-02-28 11:14:00,
2013-02-28 06:20:00,49.8,41.1,29.86,North,11,2.0,2.0,72,0.00,,,0.00,0,Wunderground v.1.15,2013-02-28 11:20:00,
2013-02-28 06:25:00,49.6,41.3,29.86,North,360,2.0,5.0,73,0.00,,,0.00,0,Wunderground v.1.15,2013-02-28 11:25:00,
2013-02-28 06:30:00,49.4,41.1,29.86,NE,55,2.0,2.0,73,0.00,,,0.00,0,Wunderground v.1.15,2013-02-28 11:30:00,
2013-02-28 06:35:00,49.3,41.0,29.86,NE,55,3.0,7.0,73,0.00,,,0.00,0,Wunderground v.1.15,2013-02-28 11:35:00,
2013-02-28 06:40:00,49.4,41.1,29.87,ENE,61,1.0,2.0,73,0.00,,,0.00,0,Wunderground v.1.15,2013-02-28 11:40:00,
2013-02-28 06:45:00,49.3,41.0,29.87,NE,45,2.0,4.0,73,0.00,,,0.00,0,Wunderground v.1.15,2013-02-28 11:45:00,
2013-02-28 06:50:00,49.3,41.0,29.88,NE,43,2.0,2.0,73,0.00,,,0.00,5,Wunderground v.1.15,2013-02-28 11:50:00,
2013-02-28 06:55:00,49.3,41.0,29.88,NE,49,4.0,6.0,73,0.00,,,0.00,7,Wunderground v.1.15,2013-02-28 11:55:00,
2013-02-28 07:00:00,49.5,41.2,29.88,NE,49,4.0,4.0,73,0.00,,,0.00,11,Wunderground v.1.15,2013-02-28 12:00:00,
2013-02-28 07:05:00,49.5,40.8,29.88,NNE,20,2.0,4.0,72,0.00,,,0.00,12,Wunderground v.1.15,2013-02-28 12:05:00,
2013-02-28 07:10:00,49.5,40.8,29.89,NNE,32,1.0,2.0,72,0.00,,,0.00,16,Wunderground v.1.15,2013-02-28 12:10:00,
2013-02-28 07:15:00,49.5,40.5,29.89,NNE,26,3.0,6.0,71,0.00,,,0.00,18,Wunderground v.1.15,2013-02-28 12:15:00,
2013-02-28 07:20:00,49.6,40.2,29.89,ENE,71,2.0,3.0,70,0.00,,,0.00,21,Wunderground v.1.15,2013-02-28 12:20:00,
2013-02-28 07:25:00,49.7,39.6,29.89,NNE,20,0.0,6.0,68,0.00,,,0.00,23,Wunderground v.1.15,2013-02-28 12:25:00,
2013-02-28 07:30:00,49.8,39.3,29.88,NNE,32,3.0,3.0,67,0.00,,,0.00,25,Wunderground v.1.15,2013-02-28 12:30:00,
2013-02-28 07:35:00,50.0,39.1,29.88,ENE,76,3.0,7.0,66,0.00,,,0.00,28,Wunderground v.1.15,2013-02-28 12:35:00,
2013-02-28 07:40:00,50.1,39.2,29.89,NE,46,2.0,3.0,66,0.00,,,0.00,30,Wunderground v.1.15,2013-02-28 12:40:00,
2013-02-28 07:45:00,50.3,39.0,29.88,North,350,0.0,5.0,65,0.00,,,0.00,32,Wunderground v.1.15,2013-02-28 12:45:00,
2013-02-28 07:50:00,50.4,38.3,29.89,NE,55,5.0,6.0,63,0.00,,,0.00,40,Wunderground v.1.15,2013-02-28 12:50:00,
2013-02-28 07:55:00,50.4,38.3,29.89,NE,39,4.0,6.0,63,0.00,,,0.00,35,Wunderground v.1.15,2013-02-28 12:55:00,
2013-02-28 08:02:00,50.8,38.2,29.90,NNE,15,2.0,8.0,62,0.00,,,0.00,39,Wunderground v.1.15,2013-02-28 13:02:00,
2013-02-28 08:07:00,51.0,38.4,29.90,NNW,332,2.0,8.0,62,0.00,,,0.00,39,Wunderground v.1.15,2013-02-28 13:07:00,
2013-02-28 08:12:00,51.2,37.8,29.90,NE,44,4.0,7.0,60,0.00,,,0.00,63,Wunderground v.1.15,2013-02-28 13:12:00,
2013-02-28 08:17:00,51.4,37.1,29.90,East,82,3.0,8.0,58,0.00,,,0.00,172,Wunderground v.1.15,2013-02-28 13:17:00,
2013-02-28 08:22:00,51.6,37.3,29.90,NNE,30,5.0,6.0,58,0.00,,,0.00,76,Wunderground v.1.15,2013-02-28 13:22:00,
2013-02-28 08:27:00,51.9,37.1,29.90,NNE,24,2.0,7.0,57,0.00,,,0.00,91,Wunderground v.1.15,2013-02-28 13:27:00,
2013-02-28 08:32:00,52.1,35.9,29.89,NE,47,2.0,7.0,54,0.00,,,0.00,121,Wunderground v.1.15,2013-02-28 13:32:00,
2013-02-28 08:37:00,52.2,36.0,29.90,ENE,65,4.0,9.0,54,0.00,,,0.00,109,Wunderground v.1.15,2013-02-28 13:37:00,
2013-02-28 08:42:00,52.1,35.9,29.90,NNE,30,3.0,10.0,54,0.00,,,0.00,72,Wunderground v.1.15,2013-02-28 13:42:00,
2013-02-28 08:47:00,52.1,35.9,29.90,North,5,10.0,11.0,54,0.00,,,0.00,114,Wunderground v.1.15,2013-02-28 13:47:00,
2013-02-28 08:52:00,52.3,35.7,29.90,NE,49,5.0,7.0,53,0.00,,,0.00,207,Wunderground v.1.15,2013-02-28 13:52:00,
2013-02-28 08:57:00,52.3,35.7,29.90,NE,42,5.0,14.0,53,0.00,,,0.00,213,Wunderground v.1.15,2013-02-28 13:57:00,
2013-02-28 09:02:00,52.4,35.8,29.90,NNW,336,5.0,8.0,53,0.00,,,0.00,223,Wunderground v.1.15,2013-02-28 14:02:00,
2013-02-28 09:07:00,52.5,36.8,29.90,NNE,22,5.0,10.0,55,0.00,,,0.00,248,Wunderground v.1.15,2013-02-28 14:07:00,
2013-02-28 09:12:00,52.7,36.5,29.90,NE,42,9.0,11.0,54,0.00,,,0.00,385,Wunderground v.1.15,2013-02-28 14:12:00,
2013-02-28 09:17:00,52.7,36.0,29.90,NE,41,6.0,12.0,53,0.00,,,0.00,424,Wunderground v.1.15,2013-02-28 14:17:00,
2013-02-28 09:23:00,52.7,37.0,29.89,NNE,26,7.0,10.0,55,0.00,,,0.00,483,Wunderground v.1.15,2013-02-28 14:23:00,
2013-02-28 09:28:00,52.7,36.5,29.90,NE,34,9.0,12.0,54,0.00,,,0.00,501,Wunderground v.1.15,2013-02-28 14:28:00,
2013-02-28 09:33:00,53.0,36.3,29.90,ENE,59,5.0,10.0,53,0.00,,,0.00,517,Wunderground v.1.15,2013-02-28 14:33:00,
2013-02-28 09:38:00,53.2,36.5,29.89,ENE,65,2.0,10.0,53,0.00,,,0.00,536,Wunderground v.1.15,2013-02-28 14:38:00,
2013-02-28 09:43:00,53.5,36.8,29.89,East,90,1.0,5.0,53,0.00,,,0.00,548,Wunderground v.1.15,2013-02-28 14:43:00,
2013-02-28 09:48:00,53.9,36.7,29.89,NE,34,3.0,9.0,52,0.00,,,0.00,559,Wunderground v.1.15,2013-02-28 14:48:00,
2013-02-28 09:53:00,54.1,36.4,29.90,NNE,32,6.0,7.0,51,0.00,,,0.00,584,Wunderground v.1.15,2013-02-28 14:53:00,
2013-02-28 09:58:00,54.0,36.3,29.89,ENE,73,4.0,9.0,51,0.00,,,0.00,596,Wunderground v.1.15,2013-02-28 14:58:00,
2013-02-28 10:03:00,54.4,36.6,29.89,ENE,75,5.0,9.0,51,0.00,,,0.00,608,Wunderground v.1.15,2013-02-28 15:03:00,
2013-02-28 10:08:00,54.4,35.6,29.89,ENE,75,4.0,9.0,49,0.00,,,0.00,624,Wunderground v.1.15,2013-02-28 15:08:00,
2013-02-28 10:13:00,54.6,36.3,29.88,East,96,2.0,6.0,50,0.00,,,0.00,631,Wunderground v.1.15,2013-02-28 15:13:00,
2013-02-28 10:18:00,55.0,36.2,29.88,NE,41,4.0,6.0,49,0.00,,,0.00,650,Wunderground v.1.15,2013-02-28 15:18:00,
2013-02-28 10:23:00,55.1,35.2,29.88,North,5,3.0,9.0,47,0.00,,,0.00,663,Wunderground v.1.15,2013-02-28 15:23:00,
2013-02-28 10:28:00,55.5,36.1,29.88,ENE,76,2.0,9.0,48,0.00,,,0.00,675,Wunderground v.1.15,2013-02-28 15:28:00,
2013-02-28 10:33:00,55.9,36.5,29.88,NNE,23,3.0,7.0,48,0.00,,,0.00,684,Wunderground v.1.15,2013-02-28 15:33:00,
2013-02-28 10:38:00,55.8,35.9,29.88,NE,40,5.0,11.0,47,0.00,,,0.00,696,Wunderground v.1.15,2013-02-28 15:38:00,
2013-02-28 10:44:00,55.8,35.9,29.88,East,86,5.0,10.0,47,0.00,,,0.00,708,Wunderground v.1.15,2013-02-28 15:44:00,
2013-02-28 10:49:00,56.0,35.5,29.88,ENE,67,3.0,10.0,46,0.00,,,0.00,721,Wunderground v.1.15,2013-02-28 15:49:00,
2013-02-28 10:54:00,56.0,34.9,29.88,NNE,28,4.0,9.0,45,0.00,,,0.00,726,Wunderground v.1.15,2013-02-28 15:54:00,
2013-02-28 10:59:00,55.7,34.7,29.88,NE,55,4.0,10.0,45,0.00,,,0.00,737,Wunderground v.1.15,2013-02-28 15:59:00,
2013-02-28 11:04:00,55.5,34.5,29.88,ENE,70,7.0,9.0,45,0.00,,,0.00,747,Wunderground v.1.15,2013-02-28 16:04:00,
2013-02-28 11:09:00,55.7,35.2,29.87,NE,50,2.0,9.0,46,0.00,,,0.00,759,Wunderground v.1.15,2013-02-28 16:09:00,
2013-02-28 11:14:00,56.2,35.7,29.87,NNE,24,5.0,7.0,46,0.00,,,0.00,768,Wunderground v.1.15,2013-02-28 16:14:00,
2013-02-28 11:19:00,56.7,35.6,29.87,NE,42,4.0,9.0,45,0.00,,,0.00,777,Wunderground v.1.15,2013-02-28 16:19:00,
2013-02-28 11:24:00,57.0,35.3,29.87,NE,51,4.0,9.0,44,0.00,,,0.00,782,Wunderground v.1.15,2013-02-28 16:24:00,
2013-02-28 11:29:00,57.4,35.6,29.87,NNE,22,7.0,9.0,44,0.00,,,0.00,789,Wunderground v.1.15,2013-02-28 16:29:00,
2013-02-28 11:34:00,57.5,35.2,29.87,SE,138,5.0,9.0,43,0.00,,,0.00,795,Wunderground v.1.15,2013-02-28 16:34:00,
2013-02-28 11:39:00,57.0,34.7,29.86,NE,55,5.0,9.0,43,0.00,,,0.00,802,Wunderground v.1.15,2013-02-28 16:39:00,
2013-02-28 11:44:00,57.2,35.5,29.86,ENE,70,1.0,6.0,44,0.00,,,0.00,809,Wunderground v.1.15,2013-02-28 16:44:00,
2013-02-28 11:49:00,57.8,36.0,29.85,NNW,329,1.0,10.0,44,0.00,,,0.00,817,Wunderground v.1.15,2013-02-28 16:49:00,
2013-02-28 11:54:00,58.1,35.1,29.85,NNW,344,5.0,11.0,42,0.00,,,0.00,823,Wunderground v.1.15,2013-02-28 16:54:00,
2013-02-28 11:59:00,58.2,34.0,29.85,NNE,15,5.0,11.0,40,0.00,,,0.00,826,Wunderground v.1.15,2013-02-28 16:59:00,
2013-02-28 12:04:00,58.1,34.5,29.85,NW,323,3.0,12.0,41,0.00,,,0.00,831,Wunderground v.1.15,2013-02-28 17:04:00,
2013-02-28 12:09:00,57.9,34.3,29.84,NE,34,4.0,14.0,41,0.00,,,0.00,831,Wunderground v.1.15,2013-02-28 17:09:00,
2013-02-28 12:14:00,58.1,33.9,29.84,NE,50,3.0,7.0,40,0.00,,,0.00,837,Wunderground v.1.15,2013-02-28 17:14:00,
2013-02-28 12:19:00,58.7,34.4,29.84,ENE,77,4.0,10.0,40,0.00,,,0.00,838,Wunderground v.1.15,2013-02-28 17:19:00,
2013-02-28 12:24:00,58.8,32.6,29.84,NNE,28,3.0,7.0,37,0.00,,,0.00,842,Wunderground v.1.15,2013-02-28 17:24:00,
2013-02-28 12:29:00,58.5,32.3,29.84,SE,134,5.0,10.0,37,0.00,,,0.00,844,Wunderground v.1.15,2013-02-28 17:29:00,
2013-02-28 12:34:00,58.3,32.8,29.84,NE,42,2.0,7.0,38,0.00,,,0.00,846,Wunderground v.1.15,2013-02-28 17:34:00,
2013-02-28 12:39:00,58.1,32.6,29.84,ENE,70,3.0,10.0,38,0.00,,,0.00,844,Wunderground v.1.15,2013-02-28 17:39:00,
2013-02-28 12:44:00,58.6,33.0,29.84,NE,38,4.0,9.0,38,0.00,,,0.00,846,Wunderground v.1.15,2013-02-28 17:44:00,
2013-02-28 12:49:00,58.8,31.9,29.83,NE,53,2.0,11.0,36,0.00,,,0.00,844,Wunderground v.1.15,2013-02-28 17:49:00,
2013-02-28 12:55:00,59.0,32.1,29.83,East,80,7.0,12.0,36,0.00,,,0.00,842,Wunderground v.1.15,2013-02-28 17:55:00,
2013-02-28 13:00:00,59.0,32.1,29.83,ENE,59,9.0,9.0,36,0.00,,,0.00,840,Wunderground v.1.15,2013-02-28 18:00:00,
2013-02-28 13:05:00,58.7,31.8,29.83,ENE,61,10.0,10.0,36,0.00,,,0.00,835,Wunderground v.1.15,2013-02-28 18:05:00,
2013-02-28 13:10:00,58.9,32.7,29.82,NE,35,8.0,8.0,37,0.00,,,0.00,833,Wunderground v.1.15,2013-02-28 18:10:00,
2013-02-28 13:15:00,59.6,31.9,29.82,NE,47,3.0,11.0,35,0.00,,,0.00,831,Wunderground v.1.15,2013-02-28 18:15:00,
2013-02-28 13:20:00,59.4,31.7,29.82,NE,42,3.0,5.0,35,0.00,,,0.00,828,Wunderground v.1.15,2013-02-28 18:20:00,
2013-02-28 13:25:00,59.5,31.8,29.81,NNW,331,3.0,12.0,35,0.00,,,0.00,824,Wunderground v.1.15,2013-02-28 18:25:00,
2013-02-28 13:30:00,59.5,32.5,29.81,North,5,3.0,5.0,36,0.00,,,0.00,817,Wunderground v.1.15,2013-02-28 18:30:00,
2013-02-28 13:35:00,59.9,32.9,29.81,NNE,20,5.0,9.0,36,0.00,,,0.00,816,Wunderground v.1.15,2013-02-28 18:35:00,
2013-02-28 13:40:00,60.2,33.1,29.81,NNW,344,4.0,5.0,36,0.00,,,0.00,807,Wunderground v.1.15,2013-02-28 18:40:00,
2013-02-28 13:45:00,60.0,31.5,29.81,NE,53,7.0,10.0,34,0.00,,,0.00,800,Wunderground v.1.15,2013-02-28 18:45:00,
2013-02-28 13:50:00,59.3,32.3,29.81,ENE,67,5.0,8.0,36,0.00,,,0.00,795,Wunderground v.1.15,2013-02-28 18:50:00,
2013-02-28 13:55:00,59.3,31.6,29.81,NE,43,5.0,11.0,35,0.00,,,0.00,788,Wunderground v.1.15,2013-02-28 18:55:00,
2013-02-28 14:00:00,59.6,31.2,29.81,East,79,5.0,9.0,34,0.00,,,0.00,780,Wunderground v.1.15,2013-02-28 19:00:00,
2013-02-28 14:05:00,60.0,32.9,29.81,NE,40,5.0,9.0,36,0.00,,,0.00,773,Wunderground v.1.15,2013-02-28 19:05:00,
2013-02-28 14:10:00,60.7,33.6,29.80,NNE,21,5.0,5.0,36,0.00,,,0.00,763,Wunderground v.1.15,2013-02-28 19:10:00,
2013-02-28 14:15:00,60.7,32.1,29.80,NE,49,5.0,12.0,34,0.00,,,0.00,752,Wunderground v.1.15,2013-02-28 19:15:00,
2013-02-28 14:20:00,60.5,32.0,29.81,ENE,76,4.0,5.0,34,0.00,,,0.00,745,Wunderground v.1.15,2013-02-28 19:20:00,
2013-02-28 14:25:00,60.6,32.8,29.81,NE,53,8.0,10.0,35,0.00,,,0.00,729,Wunderground v.1.15,2013-02-28 19:25:00,
2013-02-28 14:31:00,60.4,32.6,29.80,WNW,296,5.0,7.0,35,0.00,,,0.00,721,Wunderground v.1.15,2013-02-28 19:31:00,
2013-02-28 14:36:00,60.5,32.7,29.81,East,82,5.0,7.0,35,0.00,,,0.00,714,Wunderground v.1.15,2013-02-28 19:36:00,
2013-02-28 14:41:00,61.5,34.3,29.81,NE,44,9.0,9.0,36,0.00,,,0.00,698,Wunderground v.1.15,2013-02-28 19:41:00,
2013-02-28 14:46:00,61.1,32.5,29.81,ENE,65,4.0,13.0,34,0.00,,,0.00,687,Wunderground v.1.15,2013-02-28 19:46:00,
2013-02-28 14:51:00,60.6,32.1,29.81,ENE,59,1.0,10.0,34,0.00,,,0.00,675,Wunderground v.1.15,2013-02-28 19:51:00,
2013-02-28 14:56:00,59.9,32.2,29.81,ENE,67,2.0,11.0,35,0.00,,,0.00,663,Wunderground v.1.15,2013-02-28 19:56:00,
2013-02-28 15:02:00,60.6,33.5,29.81,NNE,27,3.0,5.0,36,0.00,,,0.00,652,Wunderground v.1.15,2013-02-28 20:02:00,
2013-02-28 15:07:00,61.4,33.5,29.81,SE,129,1.0,5.0,35,0.00,,,0.00,631,Wunderground v.1.15,2013-02-28 20:07:00,
2013-02-28 15:12:00,61.1,33.2,29.81,ENE,71,4.0,5.0,35,0.00,,,0.00,621,Wunderground v.1.15,2013-02-28 20:12:00,
2013-02-28 15:17:00,60.8,33.7,29.81,ENE,65,4.0,10.0,36,0.00,,,0.00,608,Wunderground v.1.15,2013-02-28 20:17:00,
2013-02-28 15:22:00,60.5,32.7,29.81,NE,52,3.0,5.0,35,0.00,,,0.00,592,Wunderground v.1.15,2013-02-28 20:22:00,
2013-02-28 15:27:00,60.7,33.6,29.81,NE,43,2.0,8.0,36,0.00,,,0.00,571,Wunderground v.1.15,2013-02-28 20:27:00,
2013-02-28 15:32:00,60.4,32.6,29.81,NNE,30,7.0,7.0,35,0.00,,,0.00,563,Wunderground v.1.15,2013-02-28 20:32:00,
2013-02-28 15:37:00,60.3,33.2,29.81,NE,49,6.0,9.0,36,0.00,,,0.00,541,Wunderground v.1.15,2013-02-28 20:37:00,
2013-02-28 15:42:00,60.3,33.2,29.81,NNE,21,4.0,6.0,36,0.00,,,0.00,529,Wunderground v.1.15,2013-02-28 20:42:00,
2013-02-28 15:47:00,60.5,33.4,29.81,ENE,74,3.0,8.0,36,0.00,,,0.00,345,Wunderground v.1.15,2013-02-28 20:47:00,
2013-02-28 15:52:00,60.6,33.5,29.81,NNE,32,2.0,4.0,36,0.00,,,0.00,193,Wunderground v.1.15,2013-02-28 20:52:00,
2013-02-28 15:57:00,60.6,34.2,29.81,NNE,20,7.0,9.0,37,0.00,,,0.00,343,Wunderground v.1.15,2013-02-28 20:57:00,
2013-02-28 16:02:00,60.3,33.9,29.81,NE,47,8.0,10.0,37,0.00,,,0.00,459,Wunderground v.1.15,2013-02-28 21:02:00,
2013-02-28 16:07:00,60.2,33.1,29.81,ENE,68,5.0,10.0,36,0.00,,,0.00,346,Wunderground v.1.15,2013-02-28 21:07:00,
2013-02-28 16:12:00,60.0,35.0,29.80,ENE,74,3.0,3.0,39,0.00,,,0.00,86,Wunderground v.1.15,2013-02-28 21:12:00,
2013-02-28 16:18:00,60.2,33.8,29.81,ENE,77,5.0,9.0,37,0.00,,,0.00,91,Wunderground v.1.15,2013-02-28 21:18:00,
2013-02-28 16:23:00,59.9,33.5,29.81,NE,52,2.0,7.0,37,0.00,,,0.00,132,Wunderground v.1.15,2013-02-28 21:23:00,
2013-02-28 16:28:00,59.9,34.2,29.81,NNE,27,4.0,10.0,38,0.00,,,0.00,120,Wunderground v.1.15,2013-02-28 21:28:00,
2013-02-28 16:33:00,59.8,34.8,29.81,NNE,28,5.0,7.0,39,0.00,,,0.00,128,Wunderground v.1.15,2013-02-28 21:33:00,
2013-02-28 16:38:00,59.7,34.7,29.81,ENE,75,4.0,11.0,39,0.00,,,0.00,193,Wunderground v.1.15,2013-02-28 21:38:00,
2013-02-28 16:43:00,59.7,34.7,29.81,ENE,69,2.0,6.0,39,0.00,,,0.00,120,Wunderground v.1.15,2013-02-28 21:43:00,
2013-02-28 16:48:00,59.5,34.5,29.81,NNE,29,6.0,9.0,39,0.00,,,0.00,46,Wunderground v.1.15,2013-02-28 21:48:00,
2013-02-28 16:53:00,59.5,34.5,29.81,NNW,348,3.0,7.0,39,0.00,,,0.00,39,Wunderground v.1.15,2013-02-28 21:53:00,
2013-02-28 17:05:00,59.6,34.6,29.82,East,84,3.0,3.0,39,0.00,,,0.00,44,Wunderground v.1.15,2013-02-28 22:05:00,
2013-02-28 18:03:00,57.5,35.7,29.85,NE,38,4.0,4.0,44,0.00,,,0.00,11,Wunderground v.1.15,2013-02-28 23:03:00,
2013-02-28 18:08:00,57.4,35.6,29.85,NE,44,1.0,5.0,44,0.00,,,0.00,7,Wunderground v.1.15,2013-02-28 23:08:00,
2013-02-28 18:13:00,57.2,36.0,29.85,NE,48,2.0,5.0,45,0.00,,,0.00,0,Wunderground v.1.15,2013-02-28 23:13:00,
2013-02-28 18:18:00,57.1,35.9,29.86,NE,34,0.0,5.0,45,0.00,,,0.00,0,Wunderground v.1.15,2013-02-28 23:18:00,
2013-02-28 18:23:00,57.0,35.9,29.86,ENE,70,3.0,5.0,45,0.00,,,0.00,0,Wunderground v.1.15,2013-02-28 23:23:00,
2013-02-28 18:28:00,56.9,35.8,29.86,ENE,77,1.0,5.0,45,0.00,,,0.00,0,Wunderground v.1.15,2013-02-28 23:28:00,
2013-02-28 18:33:00,56.8,35.7,29.86,NE,48,2.0,4.0,45,0.00,,,0.00,0,Wunderground v.1.15,2013-02-28 23:33:00,
2013-02-28 18:38:00,56.8,36.2,29.86,NE,37,2.0,5.0,46,0.00,,,0.00,0,Wunderground v.1.15,2013-02-28 23:38:00,
2013-02-28 18:43:00,56.8,36.2,29.86,NE,46,1.0,4.0,46,0.00,,,0.00,0,Wunderground v.1.15,2013-02-28 23:43:00,
2013-02-28 18:48:00,56.7,36.1,29.86,ENE,69,2.0,4.0,46,0.00,,,0.00,0,Wunderground v.1.15,2013-02-28 23:48:00,
2013-02-28 18:53:00,56.6,36.6,29.86,NE,46,0.0,2.0,47,0.00,,,0.00,0,Wunderground v.1.15,2013-02-28 23:53:00,
2013-02-28 18:58:00,56.5,36.0,29.86,ENE,61,1.0,5.0,46,0.00,,,0.00,0,Wunderground v.1.15,2013-02-28 23:58:00,
2013-02-28 19:03:00,56.4,36.4,29.87,ENE,65,0.0,2.0,47,0.00,,,0.00,0,Wunderground v.1.15,2013-03-01 00:03:00,
2013-02-28 19:08:00,56.3,36.8,29.87,ENE,65,1.0,3.0,48,0.00,,,0.00,0,Wunderground v.1.15,2013-03-01 00:08:00,
2013-02-28 19:13:00,56.1,37.2,29.87,ENE,65,1.0,2.0,49,0.00,,,0.00,0,Wunderground v.1.15,2013-03-01 00:13:00,
2013-02-28 19:18:00,55.9,37.5,29.87,ENE,65,0.0,2.0,50,0.00,,,0.00,0,Wunderground v.1.15,2013-03-01 00:18:00,
2013-02-28 19:23:00,55.8,37.4,29.88,ENE,65,2.0,2.0,50,0.00,,,0.00,0,Wunderground v.1.15,2013-03-01 00:23:00,
2013-02-28 19:28:00,55.7,37.8,29.88,ENE,65,0.0,2.0,51,0.00,,,0.00,0,Wunderground v.1.15,2013-03-01 00:28:00,
2013-02-28 19:33:00,55.6,37.7,29.88,ENE,65,0.0,2.0,51,0.00,,,0.00,0,Wunderground v.1.15,2013-03-01 00:33:00,
2013-02-28 19:38:00,55.4,38.1,29.88,ENE,65,1.0,2.0,52,0.00,,,0.00,0,Wunderground v.1.15,2013-03-01 00:38:00,
2013-02-28 19:43:00,55.3,38.0,29.88,ENE,65,1.0,2.0,52,0.00,,,0.00,0,Wunderground v.1.15,2013-03-01 00:43:00,
2013-02-28 19:48:00,55.2,38.4,29.89,ENE,65,2.0,2.0,53,0.00,,,0.00,0,Wunderground v.1.15,2013-03-01 00:48:00,
2013-02-28 19:53:00,55.2,38.8,29.89,ENE,65,1.0,2.0,54,0.00,,,0.00,0,Wunderground v.1.15,2013-03-01 00:53:00,
2013-02-28 19:58:00,55.1,38.3,29.89,ENE,66,1.0,2.0,53,0.00,,,0.00,0,Wunderground v.1.15,2013-03-01 00:58:00,
2013-02-28 20:03:00,55.1,37.8,29.89,ENE,70,1.0,2.0,52,0.00,,,0.00,0,Wunderground v.1.15,2013-03-01 01:03:00,
2013-02-28 20:08:00,55.0,38.2,29.89,ENE,71,1.0,2.0,53,0.00,,,0.00,0,Wunderground v.1.15,2013-03-01 01:08:00,
2013-02-28 20:13:00,54.8,38.0,29.89,ESE,111,1.0,4.0,53,0.00,,,0.00,0,Wunderground v.1.15,2013-03-01 01:13:00,
2013-02-28 20:18:00,54.5,37.7,29.89,East,96,1.0,4.0,53,0.00,,,0.00,0,Wunderground v.1.15,2013-03-01 01:18:00,
2013-02-28 20:23:00,54.3,37.5,29.89,East,99,3.0,3.0,53,0.00,,,0.00,0,Wunderground v.1.15,2013-03-01 01:23:00,
2013-02-28 20:28:00,54.1,37.3,29.90,East,98,3.0,6.0,53,0.00,,,0.00,0,Wunderground v.1.15,2013-03-01 01:28:00,
2013-02-28 20:33:00,54.0,37.7,29.90,ESE,113,1.0,4.0,54,0.00,,,0.00,0,Wunderground v.1.15,2013-03-01 01:33:00,
2013-02-28 20:38:00,53.9,37.6,29.90,ESE,105,2.0,5.0,54,0.00,,,0.00,0,Wunderground v.1.15,2013-03-01 01:38:00,
2013-02-28 20:43:00,53.9,37.6,29.90,ENE,65,2.0,3.0,54,0.00,,,0.00,0,Wunderground v.1.15,2013-03-01 01:43:00,
2013-02-28 20:49:00,53.7,37.4,29.90,East,99,2.0,3.0,54,0.00,,,0.00,0,Wunderground v.1.15,2013-03-01 01:49:00,
2013-02-28 20:54:00,53.6,37.3,29.90,ESE,105,2.0,3.0,54,0.00,,,0.00,0,Wunderground v.1.15,2013-03-01 01:54:00,
2013-02-28 20:59:00,53.5,37.7,29.90,ESE,108,4.0,6.0,55,0.00,,,0.00,0,Wunderground v.1.15,2013-03-01 01:59:00,
2013-02-28 21:07:00,53.1,37.3,29.90,ESE,103,3.0,3.0,55,0.00,,,0.00,0,Wunderground v.1.15,2013-03-01 02:07:00,
2013-02-28 21:12:00,52.9,37.2,29.91,ESE,106,1.0,2.0,55,0.00,,,0.00,0,Wunderground v.1.15,2013-03-01 02:12:00,
2013-02-28 22:02:00,51.2,35.1,29.92,ENE,72,1.0,1.0,54,0.00,,,0.00,0,Wunderground v.1.15,2013-03-01 03:02:00,
2013-02-28 22:07:00,51.0,34.9,29.91,ENE,78,1.0,4.0,54,0.00,,,0.00,0,Wunderground v.1.15,2013-03-01 03:07:00,
2013-02-28 22:12:00,50.9,34.8,29.91,ESE,107,2.0,3.0,54,0.00,,,0.00,0,Wunderground v.1.15,2013-03-01 03:12:00,
2013-02-28 22:17:00,50.7,35.1,29.91,East,96,2.0,5.0,55,0.00,,,0.00,0,Wunderground v.1.15,2013-03-01 03:17:00,
2013-02-28 22:22:00,50.6,35.0,29.92,ENE,76,1.0,3.0,55,0.00,,,0.00,0,Wunderground v.1.15,2013-03-01 03:22:00,
2013-02-28 22:27:00,50.5,35.4,29.92,East,91,2.0,5.0,56,0.00,,,0.00,0,Wunderground v.1.15,2013-03-01 03:27:00,
2013-02-28 22:32:00,50.4,34.8,29.92,East,86,1.0,5.0,55,0.00,,,0.00,0,Wunderground v.1.15,2013-03-01 03:32:00,
2013-02-28 22:37:00,50.3,35.2,29.92,ENE,74,2.0,5.0,56,0.00,,,0.00,0,Wunderground v.1.15,2013-03-01 03:37:00,
2013-02-28 22:42:00,50.1,35.0,29.91,ENE,77,2.0,4.0,56,0.00,,,0.00,0,Wunderground v.1.15,2013-03-01 03:42:00,
2013-02-28 22:47:00,50.0,35.4,29.92,East,88,1.0,4.0,57,0.00,,,0.00,0,Wunderground v.1.15,2013-03-01 03:47:00,
2013-02-28 22:52:00,49.9,35.3,29.92,East,96,1.0,3.0,57,0.00,,,0.00,0,Wunderground v.1.15,2013-03-01 03:52:00,
2013-02-28 22:57:00,49.7,35.5,29.92,East,96,1.0,3.0,58,0.00,,,0.00,0,Wunderground v.1.15,2013-03-01 03:57:00,
2013-02-28 23:02:00,49.5,35.8,29.92,East,96,0.0,2.0,59,0.00,,,0.00,0,Wunderground v.1.15,2013-03-01 04:02:00,
2013-02-28 23:07:00,49.3,36.0,29.92,East,96,2.0,2.0,60,0.00,,,0.00,0,Wunderground v.1.15,2013-03-01 04:07:00,
2013-02-28 23:12:00,49.1,35.8,29.92,ESE,119,2.0,2.0,60,0.00,,,0.00,0,Wunderground v.1.15,2013-03-01 04:12:00,
2013-02-28 23:17:00,49.0,35.7,29.92,ESE,111,1.0,2.0,60,0.00,,,0.00,0,Wunderground v.1.15,2013-03-01 04:17:00,
2013-02-28 23:22:00,48.9,35.6,29.91,East,87,2.0,3.0,60,0.00,,,0.00,0,Wunderground v.1.15,2013-03-01 04:22:00,
2013-02-28 23:27:00,48.8,35.1,29.91,East,98,1.0,3.0,59,0.00,,,0.00,0,Wunderground v.1.15,2013-03-01 04:27:00,
2013-02-28 23:32:00,48.9,34.8,29.91,East,80,1.0,3.0,58,0.00,,,0.00,0,Wunderground v.1.15,2013-03-01 04:32:00,
2013-02-28 23:37:00,48.9,34.3,29.92,East,95,2.0,3.0,57,0.00,,,0.00,0,Wunderground v.1.15,2013-03-01 04:37:00,
2013-02-28 23:42:00,48.8,34.2,29.92,East,94,2.0,5.0,57,0.00,,,0.00,0,Wunderground v.1.15,2013-03-01 04:42:00,
2013-02-28 23:47:00,48.8,34.2,29.92,East,90,2.0,5.0,57,0.00,,,0.00,0,Wunderground v.1.15,2013-03-01 04:47:00,
2013-02-28 23:52:00,48.8,33.8,29.91,East,98,2.0,6.0,56,0.00,,,0.00,0,Wunderground v.1.15,2013-03-01 04:52:00,
2013-02-28 23:57:00,48.7,34.1,29.92,ENE,72,2.0,6.0,57,0.00,,,0.00,0,Wunderground v.1.15,2013-03-01 04:57:00,